Nashua, NH

4:12 AM EDT on April 21, 2018 (GMT -0400)
Boire

Weather History for KASH - December, 2013

Change the Weather History Date:

Monday, December 9, 2013

  Actual Average Record
Temperature  
Mean Temperature 28 °F -  
Max Temperature 33 °F 39 °F 60 °F (1951)
Min Temperature 24 °F 19 °F -4 °F (1949)
Degree Days  
Heating Degree Days 36    
Moisture  
Dew Point 27 °F    
Average Humidity 94    
Maximum Humidity 100    
Minimum Humidity 58    
Precipitation  
Precipitation 0.06 in - - ()
Sea Level Pressure  
Sea Level Pressure 30.21 in    
Wind  
Wind Speed 0 mph (NNW)    
Max Wind Speed 7 mph    
Max Gust Speed -    
Visibility 2 miles    
Events Fog , Rain , Snow    
Averages and records for this station are not official NWS values.
T = Trace of Precipitation, MM = Missing Value Source: NWS Daily Summary

Daily Weather History Graph

Daily Weather History Graph

Search for Another Location

Airport or City:

Astronomy

Dec. 09, 2013 Rise Set
Actual Time 7:04 AM EST 4:11 PM EST
Civil Twilight 6:32 AM EST 4:44 PM EST
Nautical Twilight 5:57 AM EST 5:19 PM EST
Astronomical Twilight 5:23 AM EST 5:53 PM EST
Moon 11:48 AM EST (12/9) No Moon Set
Length of Visible Light 10h 11m
Length of Day
9h 07m
Waxing Crescent, 51% of the Moon is Illuminated
Dec 9
Waxing Crescent
Dec 17
Full
Dec 25
Last Quarter
Jan 1
New
Jan 7
First Quarter

Hourly Weather History & Observations

Time (EST) Temp. Windchill Dew Point Humidity Pressure Visibility Wind Dir Wind Speed Gust Speed Precip Events Conditions
12:51 AM 28.0 °F - 15.1 °F 58% 28.31 in 10.0 mi Calm Calm - N/A   Partly Cloudy
1:51 AM 27.1 °F - 15.1 °F 60% 28.30 in 10.0 mi Calm Calm - N/A   Clear
2:20 AM 26.6 °F - 15.8 °F 64% 30.46 in 10.0 mi Calm Calm - 0.00 in   Mostly Cloudy
2:51 AM 25.2 °F - 18.1 °F 75% 28.28 in 3.0 mi Calm Calm - 0.00 in Snow Light Snow
3:01 AM 24.8 °F - 19.4 °F 80% 30.46 in 2.5 mi Calm Calm - 0.00 in Snow Light Snow
3:14 AM 24.8 °F - 19.4 °F 80% 30.45 in 2.5 mi Calm Calm - 0.00 in Snow Light Snow
3:51 AM 24.1 °F - 21.0 °F 88% 28.26 in 2.5 mi Calm Calm - 0.00 in Snow Light Snow
3:58 AM 24.8 °F - 21.2 °F 86% 30.42 in 3.0 mi Calm Calm - 0.00 in Snow Light Snow
4:24 AM 24.8 °F - 21.2 °F 86% 30.41 in 2.5 mi Calm Calm - 0.00 in Snow Light Snow
4:51 AM 24.1 °F - 22.1 °F 92% 28.22 in 1.8 mi Calm Calm - 0.00 in Snow Light Snow
5:08 AM 24.8 °F 19.1 °F 21.2 °F 86% 30.38 in 2.0 mi NNE 4.6 mph - 0.00 in Snow Light Snow
5:16 AM 24.8 °F - 21.2 °F 86% 30.38 in 2.5 mi Calm Calm - 0.00 in Snow Light Snow
5:31 AM 24.8 °F - 21.2 °F 86% 30.37 in 3.0 mi Calm Calm - 0.00 in Snow Light Snow
5:51 AM 24.1 °F - 22.1 °F 92% 31.14 in 3.0 mi Calm Calm - 0.00 in Snow Light Snow
5:57 AM 24.8 °F - 21.2 °F 86% 30.36 in 2.5 mi Calm Calm - 0.00 in Snow Light Snow
6:09 AM 24.8 °F - 23.0 °F 93% 30.35 in 1.5 mi Calm Calm - 0.00 in Snow Light Snow
6:25 AM 24.8 °F - 23.0 °F 93% 30.34 in 2.0 mi Calm Calm - 0.00 in Snow Light Snow
6:51 AM 25.2 °F - 23.0 °F 91% 31.10 in 1.8 mi Calm Calm - 0.00 in Snow Light Snow
6:56 AM 24.8 °F - 23.0 °F 93% 30.32 in 2.0 mi Calm Calm - 0.00 in Snow Light Snow
7:07 AM 24.8 °F - 23.0 °F 93% 30.32 in 0.8 mi Calm Calm - 0.00 in Snow Light Snow
7:28 AM 24.8 °F - 23.0 °F 93% 30.30 in 1.0 mi Calm Calm - 0.00 in Snow Light Snow
7:51 AM 25.2 °F - 24.1 °F 96% 31.05 in 1.0 mi Calm Calm - 0.00 in Snow Light Snow
7:55 AM 24.8 °F - 24.8 °F 100% 30.28 in 2.0 mi Calm Calm - 0.00 in Snow Light Snow
8:03 AM 24.8 °F - 24.8 °F 100% 30.28 in 1.5 mi Calm Calm - 0.00 in Snow Light Snow
8:13 AM 26.6 °F - 24.8 °F 93% 30.27 in 1.5 mi Calm Calm - 0.00 in   Overcast
8:39 AM 26.6 °F - 24.8 °F 93% 30.26 in 1.0 mi Calm Calm - 0.00 in Snow Light Snow
8:51 AM 26.1 °F - 25.2 °F 96% 31.03 in 1.0 mi Calm Calm - 0.00 in Snow Light Snow
9:51 AM 28.0 °F 20.8 °F 27.1 °F 96% 31.00 in 0.8 mi NNW 6.9 mph - 0.00 in Snow Light Snow
10:51 AM 29.1 °F - 29.1 °F 100% 30.95 in 0.8 mi Calm Calm - 0.00 in Snow Light Snow
11:27 AM 30.2 °F - 30.2 °F 100% 30.15 in 1.2 mi Calm Calm - 0.00 in   Overcast
11:38 AM 30.2 °F - 30.2 °F 100% 30.14 in 1.2 mi Calm Calm - 0.00 in Rain Light Freezing Rain
11:51 AM 31.1 °F - 30.0 °F 96% 30.89 in 1.0 mi Calm Calm - 0.00 in Rain Light Freezing Rain
11:59 AM 30.2 °F - 30.2 °F 100% 30.11 in 1.2 mi Calm Calm - 0.00 in Rain Light Freezing Rain
12:13 PM 30.2 °F - 30.2 °F 100% 30.10 in 2.0 mi Calm Calm - 0.00 in Rain Light Freezing Rain
12:22 PM 32.0 °F - 32.0 °F 100% 30.09 in 1.2 mi Calm Calm - 0.00 in Rain Light Freezing Rain
12:31 PM 32.0 °F - 32.0 °F 100% 30.08 in 1.0 mi Calm Calm - 0.00 in Rain Light Freezing Rain
12:51 PM 32.0 °F - 32.0 °F 100% 30.84 in 1.0 mi Calm Calm - 0.00 in Rain Light Freezing Rain
1:12 PM 33.8 °F - 32.0 °F 93% 30.05 in 0.8 mi Calm Calm - 0.00 in Rain Light Freezing Rain
1:23 PM 33.8 °F - 32.0 °F 93% 30.04 in 0.8 mi Calm Calm - 0.00 in Rain Light Freezing Rain
1:51 PM 32.9 °F - 32.0 °F 96% 30.79 in 1.0 mi Calm Calm - 0.00 in Rain Light Rain
2:51 PM 32.9 °F 27.5 °F 32.0 °F 96% 30.76 in 1.5 mi NNW 5.8 mph - 0.00 in Rain Light Rain
3:51 PM 32.9 °F 26.7 °F 32.9 °F 100% 30.73 in 1.5 mi NNW 6.9 mph - 0.00 in Rain Light Rain
4:01 PM 33.8 °F - 33.8 °F 100% 29.96 in 1.0 mi Calm Calm - 0.00 in   Overcast
4:51 PM 32.9 °F - 32.9 °F 100% 30.70 in 2.0 mi Calm Calm - 0.00 in Rain Rain
5:51 PM 32.9 °F - 32.9 °F 100% 30.68 in 1.5 mi Calm Calm - 0.00 in   Overcast
6:51 PM 32.9 °F - 32.9 °F 100% 30.67 in 2.0 mi Calm Calm - 0.02 in   Overcast
7:51 PM 32.9 °F - 32.9 °F 100% 30.66 in 3.0 mi Calm Calm - 0.02 in   Overcast
8:51 PM 32.9 °F - 32.9 °F 100% 30.66 in 3.0 mi Calm Calm - 0.01 in   Overcast
8:58 PM 33.8 °F - 33.8 °F 100% 29.89 in 4.0 mi Calm Calm - N/A   Overcast
9:31 PM 32.0 °F - 32.0 °F 100% 29.90 in 3.0 mi Calm Calm - N/A   Scattered Clouds
9:40 PM 32.0 °F - 32.0 °F 100% 29.90 in 4.0 mi Calm Calm - N/A   Scattered Clouds
9:51 PM 32.0 °F - 32.0 °F 100% 30.66 in 2.5 mi Calm Calm - N/A   Scattered Clouds
9:56 PM 32.0 °F - 32.0 °F 100% 29.90 in 1.2 mi Calm Calm - N/A   Mostly Cloudy
9:59 PM 32.0 °F - 32.0 °F 100% 29.90 in 0.8 mi Calm Calm - N/A   Mostly Cloudy
10:11 PM 32.0 °F - 32.0 °F 100% 29.90 in 1.2 mi Calm Calm - N/A   Mostly Cloudy
10:21 PM 32.0 °F - 32.0 °F 100% 29.90 in 1.0 mi Calm Calm - N/A   Overcast
10:27 PM 32.0 °F - 32.0 °F 100% 29.90 in 0.5 mi Calm Calm - N/A Fog Fog
10:39 PM 32.0 °F - 32.0 °F 100% 29.91 in 0.2 mi Calm Calm - N/A Fog Fog
10:51 PM 32.0 °F - 32.0 °F 100% 30.66 in 0.2 mi Calm Calm - N/A Fog Fog
10:58 PM 32.0 °F - 32.0 °F 100% 29.90 in 0.2 mi Calm Calm - N/A Fog Fog
11:51 PM 31.1 °F - 31.1 °F 100% 30.66 in 0.5 mi Calm Calm - 0.01 in Fog Light Freezing Fog
11:55 PM 30.2 °F - 30.2 °F 100% 29.90 in 1.0 mi Calm Calm - N/A   Mist
11:57 PM 30.2 °F - 30.2 °F 100% 29.90 in 2.5 mi Calm Calm - N/A   Clear